GORIZONT 12 [-]

Last updated on Jan. 23, 2021, 7:21 a.m. UTC

1 16769U 86044A   21022.95975189  .00000125  00000-0  00000-0 0  9999
2 16769  13.1170 336.3157 0002792 338.3673 197.3358  1.00306880127490
UTC
Height (km)
Latitude
Longitude
Inclination
Orbital Period
UTC large
Height (km)
Speed (km/s)
/
Latitude / Longitude
Inclination (degrees)
Orbital Period (minutes)
Azimuth
Elevation
Range (km)
Doppler Factor
iOS Compass Heading
iOS Angle

Next 30 passes for location: Hong Kong

Rise time Rise Azimuth (degrees) Set time Set Azimuth (degrees) Duration Max altitude (degrees)

No matching passes for this satellites